Date String (YYYY-MM-DD hh:mm:ss) UTC,Instrument flags,Ambient pressure (hPa),Sample flow (lpm),Bypass flow (lpm),Sample temperature (°C),Ambient temperature (°C),ASC tube jacket temperature (°C),LED temperature (°C),Box temperature (°C),Sample RH (%),Span deviation,Mass concentration (μg/m³),Mass concentration (μg/m³),Mass concentration (μg/m³)
DateTimeUTC,F1_M11,P_M11,Q1_M11,Q2_M11,T1_M11,T2_M11,T3_M11,T4_M11,T5_M11,U1_M11,ZSPAN_M11,X0_M11,X2_M11,X1_M11
2021-09-30 10:00:00,,0832.7,5.00,0.00,27.3,26.5,00.0,36.6,29.0,22.7,0000.0,0009.81,0004.42,0003.95
2021-09-30 10:01:00,,0832.8,5.01,0.00,27.3,26.5,00.0,36.6,29.0,22.7,0000.0,0008.66,0004.46,0003.97
2021-09-30 10:02:00,,0832.8,4.99,0.00,27.2,26.4,00.0,36.5,28.9,22.7,0000.0,0008.09,0004.49,0003.98
2021-09-30 10:03:00,,0832.8,5.01,0.00,27.2,26.4,00.0,36.5,28.9,22.8,0000.0,0008.15,0004.52,0004.00
2021-09-30 10:04:00,,0832.7,5.00,0.00,27.2,26.4,00.0,36.5,28.9,22.7,0000.0,0008.10,0004.53,0004.01
2021-09-30 10:05:00,,0832.7,5.01,0.00,27.2,26.4,00.0,36.5,28.9,22.7,0000.0,0008.08,0004.54,0004.03
2021-09-30 10:06:00,,0832.7,4.99,0.00,27.1,26.3,00.0,36.5,28.8,22.7,0000.0,0008.14,0004.57,0004.06
2021-09-30 10:07:00,,0832.7,5.01,0.00,27.1,26.3,00.0,36.4,28.8,22.8,0000.0,0008.07,0004.61,0004.08
2021-09-30 10:08:00,,0832.7,5.00,0.00,27.1,26.3,00.0,36.4,28.8,22.8,0000.0,0007.96,0004.65,0004.12
2021-09-30 10:09:00,,0832.7,5.01,0.00,27.1,26.2,00.0,36.4,28.7,22.8,0000.0,0007.67,0004.68,0004.15
2021-09-30 10:10:00,,0832.7,5.00,0.00,27.0,26.2,00.0,36.4,28.7,22.9,0000.0,0007.67,0004.71,0004.17
2021-09-30 10:11:00,,0832.7,5.01,0.00,27.0,26.2,00.0,36.3,28.7,23.0,0000.0,0007.68,0004.75,0004.20
2021-09-30 10:12:00,,0832.7,5.00,0.00,27.0,26.2,00.0,36.3,28.7,23.0,0000.0,0008.22,0004.78,0004.23
2021-09-30 10:13:00,,0832.7,4.99,0.00,27.0,26.2,00.0,36.3,28.6,23.2,0000.0,0008.23,0004.79,0004.26
2021-09-30 10:14:00,,0832.7,5.02,0.00,26.9,26.1,00.0,36.3,28.6,23.3,0000.0,0008.22,0004.81,0004.28
2021-09-30 10:15:00,,0832.7,5.00,0.00,26.9,26.1,00.0,36.3,28.6,23.3,0000.0,0008.33,0004.85,0004.32
2021-09-30 10:16:00,,0832.7,4.99,0.00,26.9,26.1,00.0,36.2,28.6,23.4,0000.0,0008.40,0004.88,0004.34
2021-09-30 10:17:00,,0832.6,5.01,0.00,26.9,26.1,00.0,36.2,28.6,23.5,0000.0,0008.62,0004.89,0004.35
2021-09-30 10:18:00,,0832.7,5.01,0.00,26.9,26.1,00.0,36.2,28.5,23.6,0000.0,0008.52,0004.89,0004.36
2021-09-30 10:19:00,,0832.6,5.00,0.00,26.8,26.1,00.0,36.2,28.5,23.7,0000.0,0008.53,0004.88,0004.36
2021-09-30 10:20:00,,0832.6,5.01,0.00,26.8,26.1,00.0,36.2,28.5,23.8,0000.0,0008.45,0004.86,0004.37
2021-09-30 10:21:00,,0832.6,5.00,0.00,26.8,26.1,00.0,36.1,28.5,24.4,0000.0,0008.44,0004.87,0004.38
2021-09-30 10:22:00,,0832.6,5.00,0.00,26.8,26.1,00.0,36.1,28.5,24.6,0000.0,0008.46,0004.84,0004.38
2021-09-30 10:23:00,,0832.7,5.01,0.00,26.8,26.0,00.0,36.1,28.5,24.3,0000.0,0008.08,0004.81,0004.38
2021-09-30 10:24:00,,0832.6,5.00,0.00,26.8,26.0,00.0,36.1,28.5,24.3,0000.0,0008.00,0004.84,0004.38
2021-09-30 10:25:00,,0832.6,5.01,0.00,26.8,26.0,00.0,36.1,28.5,24.3,0000.0,0008.08,0004.88,0004.38
2021-09-30 10:26:00,,0832.6,5.01,0.00,26.8,26.0,00.0,36.0,28.5,24.3,0000.0,0007.95,0004.83,0004.37
2021-09-30 10:27:00,,0832.6,4.99,0.00,26.7,26.0,00.0,36.0,28.5,24.3,0000.0,0007.97,0004.84,0004.37
2021-09-30 10:28:00,,0832.6,5.01,0.00,26.7,26.0,00.0,36.0,28.5,24.3,0000.0,0007.83,0004.87,0004.38
2021-09-30 10:29:00,,0832.6,4.99,0.00,26.7,26.0,00.0,36.0,28.5,24.4,0000.0,0007.88,0004.86,0004.38
2021-09-30 10:30:00,,0832.6,5.01,0.00,26.8,26.1,00.0,36.0,28.5,24.4,0000.0,0008.22,0004.89,0004.39
2021-09-30 10:31:00,,0832.7,4.99,0.00,26.8,26.1,00.0,36.0,28.6,24.4,0000.0,0008.24,0004.91,0004.39
2021-09-30 10:32:00,,0832.7,5.01,0.00,26.8,26.1,00.0,36.0,28.6,24.3,0000.0,0008.37,0004.89,0004.39
2021-09-30 10:33:00,,0832.7,5.00,0.00,26.8,26.2,00.0,36.0,28.7,24.3,0000.0,0008.39,0004.92,0004.40
2021-09-30 10:34:00,,0832.8,5.00,0.00,26.9,26.2,00.0,36.0,28.7,24.3,0000.0,0008.49,0004.97,0004.41
2021-09-30 10:35:00,,0832.8,4.99,0.00,26.9,26.3,00.0,36.0,28.8,24.2,0000.0,0008.54,0004.98,0004.41
2021-09-30 10:36:00,,0832.7,5.01,0.00,27.0,26.3,00.0,36.0,28.8,24.2,0000.0,0008.96,0004.97,0004.42
2021-09-30 10:37:00,,0832.8,4.99,0.00,27.0,26.3,00.0,36.0,28.9,24.3,0000.0,0009.50,0005.02,0004.44
2021-09-30 10:38:00,,0832.9,4.99,0.00,27.0,26.4,00.0,36.0,28.9,24.2,0000.0,0009.47,0005.03,0004.46
2021-09-30 10:39:00,,0832.8,5.01,0.00,27.0,26.4,00.0,36.0,28.9,24.2,0000.0,0009.54,0005.03,0004.46
2021-09-30 10:40:00,,0832.9,5.00,0.00,27.0,26.4,00.0,36.0,28.9,24.2,0000.0,0009.43,0005.04,0004.47
2021-09-30 10:41:00,,0832.8,5.01,0.00,27.0,26.4,00.0,36.1,28.9,24.2,0000.0,0008.97,0004.99,0004.47
2021-09-30 10:42:00,,0832.8,5.00,0.00,27.1,26.4,00.0,36.1,28.9,24.2,0000.0,0008.99,0005.00,0004.48
2021-09-30 10:43:00,,0832.9,5.00,0.00,27.1,26.4,00.0,36.1,28.9,24.1,0000.0,0008.95,0005.05,0004.49
2021-09-30 10:44:00,,0832.9,5.00,0.00,27.1,26.4,00.0,36.1,28.9,24.0,0000.0,0008.93,0005.05,0004.50
2021-09-30 10:45:00,,0832.9,5.00,0.00,27.1,26.4,00.0,36.1,28.9,24.0,0000.0,0008.86,0005.03,0004.48
2021-09-30 10:46:00,,0832.9,5.00,0.00,27.1,26.4,00.0,36.1,28.9,23.9,0000.0,0008.72,0005.00,0004.49
2021-09-30 10:47:00,,0832.9,5.01,0.00,27.1,26.5,00.0,36.1,29.0,24.0,0000.0,0008.34,0004.98,0004.48
2021-09-30 10:48:00,,0832.9,5.01,0.00,27.1,26.5,00.0,36.1,29.0,24.0,0000.0,0008.03,0004.96,0004.48
2021-09-30 10:49:00,,0832.9,4.99,0.00,27.2,26.5,00.0,36.2,29.0,23.9,0000.0,0008.14,0004.96,0004.47
2021-09-30 10:50:00,,0832.8,5.00,0.00,27.2,26.5,00.0,36.2,29.0,23.9,0000.0,0008.09,0004.96,0004.47
2021-09-30 10:51:00,,0832.9,5.01,0.00,27.2,26.5,00.0,36.2,29.0,23.8,0000.0,0008.07,0004.95,0004.48
2021-09-30 10:52:00,,0832.9,5.00,0.00,27.2,26.5,00.0,36.2,29.1,23.8,0000.0,0008.28,0005.01,0004.50
2021-09-30 10:53:00,,0832.8,5.00,0.00,27.2,26.5,00.0,36.2,29.1,23.8,0000.0,0008.36,0005.02,0004.51
2021-09-30 10:54:00,,0832.9,5.00,0.00,27.2,26.5,00.0,36.2,29.1,23.8,0000.0,0008.31,0005.01,0004.52
2021-09-30 10:55:00,,0832.9,4.99,0.00,27.2,26.5,00.0,36.2,29.1,23.9,0000.0,0008.34,0005.01,0004.52
2021-09-30 10:56:00,,0832.9,4.99,0.00,27.2,26.5,00.0,36.2,29.1,23.9,0000.0,0008.38,0005.03,0004.53
2021-09-30 10:57:00,,0832.8,5.00,0.00,27.2,26.5,00.0,36.2,29.1,23.9,0000.0,0008.87,0005.05,0004.55
2021-09-30 10:58:00,,0832.8,5.02,0.00,27.2,26.5,00.0,36.2,29.1,23.9,0000.0,0008.87,0005.03,0004.56
2021-09-30 10:59:00,,0832.8,4.99,0.00,27.2,26.5,00.0,36.2,29.1,23.9,0000.0,0008.69,0005.05,0004.58
